Zurück zum Katalog

FENGYUN 1C DEB

AktivSSO
NORAD 30080·DEBRIS·🇨🇳 China

Gestartet May 10, 1999 von Taiyuan Satellite Launch Center

Loading…

Nächste Überflüge (nächste 24 Stunden)

TLE

AktuellSource: Space-Track

Epoche: Sep 14, 2026, 10:06 UTC

1 30080U 99025QH  26257.42112632  .00000221  00000-0  13519-3 0  9996
2 30080  98.7284 234.8152 0132858 358.2925 163.5003 14.11010503 11250

Verfolge FENGYUN 1C DEB in Echtzeit mit AllMySat

Download on the App Store